Flag for Poland Weather past 2 weeks in Płock, Poland

Now
58 °F

Cool.


Feels Like: 58 °F
Forecast: 38 / 55 °F
Wind: 1 mph from Southwest

Location: Plock

Current Time: Apr 28, 2015 at 9:30:14 AM

Latest Report: Apr 28, 2015 at 8:00 AM


Visibility: 7 mi

Pressure: 29.61 "Hg

Humidity: 82%

Dew point: 53 °F

Location of PłockLocation

Historic Weather in Płock — Graph

°F

Płock temperature yesterday

Maximum temperature yesterday: 73 °F (at 4:00 PM)
Minimum temperature yesterday: 46 °F (at 5:00 AM)
Average temperature yesterday: 60 °F

Past Weeks' High & Low Weather Summary

 TemperatureHumidityPressure
High73 °F (Apr 27, 4:00 PM)98% (Apr 27, 12:00 AM)30.23 "Hg (Apr 27, 12:00 AM)
Low32 °F (Apr 22, 5:00 AM)32% (Apr 23, 2:00 PM)29.58 "Hg (Apr 28, 5:00 AM)
Average50 °F64%29.95 "Hg
* Reported Apr 13 8:00 AM — Apr 28 8:00 AM, Płock, Weather by CustomWeather, © 2015

Note: Actual official high and low records may vary slightly from our data, if they occured in-between our weather recording intervals... More about our weather records

Advertising

Płock weather history for previous 24 hours

 ConditionsComfort  
Time TempWeatherWind HumidityBarometerVisibility
8:00 AM
Tue, Apr 28
58 °FCool.1 mph82%29.61 "Hg7 mi
7:00 AM56 °FCool.2 mph78%29.59 "Hg8 mi
6:00 AM55 °FCool.2 mph80%29.58 "Hg10 mi
5:00 AM54 °FCool.3 mph84%29.58 "Hg9 mi
4:00 AM54 °FCool.3 mph87%29.58 "Hg8 mi
3:00 AM55 °FCool.1 mph88%29.59 "Hg7 mi
2:00 AM56 °FCool.1 mph89%29.59 "Hg6 mi
1:00 AM61 °FCool.3 mph76%29.59 "Hg13 mi
12:00 AM59 °FCool.1 mph84%29.59 "Hg10 mi
11:00 PM
Mon, Apr 27
62 °FLight rain. Overcast.5 mph70%29.60 "Hg11 mi
10:00 PM62 °FCool.3 mph67%29.58 "Hg17 mi
9:00 PM63 °FMild.3 mph67%29.59 "Hg18 mi
8:00 PM66 °FMild.3 mph65%29.59 "Hg13 mi
7:00 PM70 °FMild.2 mph55%29.59 "Hg25 mi
6:00 PM73 °FMild.5 mph44%29.61 "Hg31 mi
5:00 PM72 °FMild.5 mph46%29.62 "Hg19 mi
4:00 PM73 °FMild.5 mph47%29.63 "Hg17 mi
3:00 PM71 °FMild.5 mph49%29.65 "Hg17 mi
2:00 PM71 °FMild.6 mph47%29.67 "Hg19 mi
1:00 PM69 °FMild.6 mph55%29.69 "Hg16 mi
12:00 PM67 °FMild.6 mph59%29.70 "Hg17 mi
11:00 AM64 °FMild.5 mph69%29.72 "Hg18 mi
10:00 AM62 °FCool.6 mph71%29.72 "Hg15 mi
9:00 AM58 °FCool.3 mph82%29.73 "Hg10 mi
Weather by CustomWeather, © 2015

See weather overviewHow to use our weather pages